[[{"header":{"parameterUnit":"m.s-1","parameterCategory":1,"la1":30.2991,"la2":30.254,"lo1":-89.0895,"lo2":-89.0444,"dy":0.0017,"dx":0.0017,"nx":28,"ny":28,"refTime":"2025-04-14T09:00:00:Z","depth":0,"parameterNumber":2,"parameterNumberName":"U-component_of_WINDS"},"data":[0,0,0,0,0,0,0,0,0,0,0,0,0,0,0,0,0,0,0,0,0,0,0,0,0,0,0,0,0,0,0,0,0,0,0,0,0,0,0,0,0,0,0,0,0,0,0,0,0,0,0,0,0,0,0,0,0,0,0.5081,0.5081,0,0.5091,0.5091,0.5091,0.5118,0.5119,0.5119,0.512,0.5128,0.5127,0.5127,0,0,0,0,0,0,0,0,0,0,0,0,0,0.5084,0.5084,0.5081,0.5081,0.5081,0.5091,0.5091,0.5091,0.5118,0.5119,0.5119,0.512,0.5128,0.5127,0.5127,0,0,0,0,0,0,0,0,0,0,0,0,0,0.5087,0.5084,0.5081,0.5096,0.5097,0.5091,0.5091,0.5091,0.5118,0.5119,0.512,0.512,0.5128,0.5127,0.5127,0.5106,0,0,0.5125,0.5125,0,0,0,0,0,0,0,0,0.5087,0.5087,0.5094,0.5095,0.5096,0.5104,0.5095,0.5096,0.5118,0.511,0.512,0.5121,0.5119,0.5119,0.5119,0.5106,0.5107,0.5125,0.5125,0.5125,0.5125,0,0,0,0,0,0,0,0.5087,0.5087,0.5085,0.5094,0.5095,0.5102,0.5103,0.5095,0.5109,0.5111,0.5113,0.5114,0.512,0.5119,0.5119,0.5107,0.5125,0.5125,0.5124,0.5124,0.5077,0.5076,0,0,0,0,0,0,0.5085,0.5086,0.5084,0.5085,0.5094,0.5101,0.5102,0.5101,0.5109,0.5112,0.5113,0.5115,0.512,0.512,0.512,0.5095,0.5125,0.5124,0.5124,0.5078,0.5077,0.5076,0,0,0,0,0,0,0.5085,0.5084,0.5084,0.5086,0.5087,0.51,0.5098,0.51,0.51,0.5111,0.5114,0.511,0.5121,0.5121,0.5109,0.5096,0.5124,0.5124,0.5079,0.5078,0.5076,0.5046,0,0,0,0,0,0,0.5085,0.5084,0.5076,0.5086,0.5087,0.5074,0.5097,0.51,0.5099,0.5102,0.5109,0.5111,0.5121,0.511,0.5109,0.5096,0.5123,0.508,0.5078,0.5077,0.5048,0.5044,0.504,0,0,0,0,0,0.5085,0.5067,0.5076,0.5075,0.5077,0.5073,0.5073,0.5086,0.5098,0.509,0.5098,0.5111,0.5098,0.5108,0.5107,0.5094,0.5081,0.5079,0.5077,0.505,0.5045,0.504,0,0,0,0,0,0,0.5055,0.5069,0.5078,0.5064,0.5067,0.5077,0.5068,0.508,0.5079,0.5081,0.5097,0.5098,0.5085,0.5089,0.51,0.5074,0.5092,0.5089,0.5072,0.5067,0.5063,0.5061,0.5123,0,0,0,0,0,0.5046,0.5042,0.5054,0.504,0.5041,0.5054,0.5053,0.5063,0.5066,0.5068,0.5074,0.5077,0.5073,0.507,0.5068,0.505,0.5051,0.504,0.5036,0.5032,0.503,0.502,0.5015,0.5069,0.5069,0.5069,0,0,0.5029,0.5036,0.5032,0.5034,0.5038,0.5032,0.5055,0.5048,0.5044,0.5066,0.5056,0.5061,0.5065,0.505,0.5044,0.5053,0.5015,0.503,0.5027,0.5026,0.5017,0.5012,0.5007,0.5067,0.5068,0.5068,0,0,0.4994,0.5,0.4988,0.4992,0.4997,0.5006,0.5004,0.5013,0.5017,0.5007,0.5024,0.5019,0.5013,0.5015,0.5015,0.4983,0.4994,0.4982,0.4959,0.4949,0.4945,0.4941,0.4929,0.4924,0.4979,0.4979,0.4979,0,0.4971,0.4964,0.498,0.4973,0.4973,0.4994,0.4982,0.4985,0.4989,0.4988,0.4999,0.4992,0.4996,0.4982,0.4974,0.4974,0.4971,0.498,0.4945,0.4941,0.4938,0.4926,0.4921,0.4977,0.4978,0.4978,0.4978,0,0.4936,0.4931,0.4921,0.4925,0.4924,0.4915,0.4929,0.4926,0.4937,0.4944,0.4934,0.494,0.4939,0.4937,0.4947,0.4924,0.4929,0.4942,0.496,0.4931,0.492,0.4915,0.4975,0.4976,0.4976,0.4977,0,0,0.488,0.4895,0.4891,0.4893,0.4902,0.4898,0.4889,0.4889,0.4886,0.4889,0.4881,0.4877,0.4889,0.4889,0.4899,0.4891,0.4864,0.4905,0.4905,0.4896,0.4838,0.4827,0.4822,0.4873,0.4872,0.4871,0.4838,0,0.4846,0.4833,0.4847,0.483,0.4825,0.4846,0.4839,0.4843,0.485,0.4847,0.4855,0.4851,0.4868,0.4868,0.4861,0.4869,0.4852,0.4872,0.4865,0.4864,0.4861,0.4816,0.4805,0.4772,0.4834,0.4833,0.4832,0,0.4804,0.4806,0.4789,0.4799,0.4797,0.479,0.4791,0.4789,0.4794,0.48,0.4801,0.4814,0.4806,0.4825,0.4813,0.4826,0.4824,0.4828,0.4827,0.4825,0.4845,0.4812,0.4763,0.4757,0.4826,0.4827,0.4827,0,0.4764,0.4762,0.4751,0.4753,0.4765,0.4759,0.4764,0.477,0.4769,0.4771,0.477,0.477,0.477,0.4769,0.4782,0.4795,0.4769,0.4789,0.4772,0.4772,0.4764,0.4764,0.4712,0.4766,0.4766,0.4766,0.4766,0,0.4724,0.4712,0.4733,0.4726,0.4714,0.4732,0.4718,0.4725,0.4731,0.4725,0.4744,0.4738,0.4756,0.4752,0.4762,0.4751,0.4751,0.4755,0.4757,0.4752,0.4751,0.475,0.4752,0.4765,0.4765,0.4765,0.4766,0,0.4675,0.469,0.4679,0.4692,0.4695,0.4685,0.4695,0.4689,0.4699,0.4692,0.4691,0.4705,0.4702,0.4715,0.4714,0.4721,0.4703,0.471,0.4701,0.4703,0.4685,0.4686,0.4629,0.4622,0.4682,0.4681,0.4681,0,0.4648,0.4639,0.4651,0.465,0.4653,0.465,0.465,0.4667,0.4666,0.4672,0.4665,0.4663,0.4662,0.4656,0.4666,0.4665,0.4671,0.4651,0.4671,0.4666,0.4669,0.4669,0.4667,0.4646,0.4646,0.4645,0.4645,0,0.4597,0.4604,0.4603,0.4605,0.4604,0.4606,0.4609,0.4607,0.4625,0.4623,0.462,0.462,0.4619,0.4617,0.4618,0.4622,0.4636,0.4639,0.4635,0.4628,0.4623,0.4624,0.4688,0.4639,0.464,0.464,0.464,0.4641,0.4557,0.455,0.4558,0.4556,0.4561,0.4564,0.4559,0.4568,0.4566,0.4567,0.4578,0.4573,0.4579,0.4582,0.4586,0.4581,0.4591,0.4585,0.4583,0.4581,0.4578,0.4625,0.4582,0.4582,0.4582,0.4582,0.4583,0,0.4506,0.4512,0.451,0.4515,0.4513,0.4528,0.4533,0.453,0.4526,0.4531,0.4531,0.4527,0.4526,0.4536,0.4536,0.453,0.4537,0.4529,0.4529,0.453,0.457,0.4573,0.4524,0.4524,0.4524,0.4524,0.4524,0.4524,0.4478,0.4468,0.4477,0.4469,0.4475,0.4471,0.4472,0.4475,0.4479,0.4474,0.4474,0.4481,0.4488,0.4489,0.4487,0.4491,0.4489,0.4479,0.4484,0.4521,0.4527,0.4532,0.4535,0.4479,0.4479,0.4444,0.4444,0.4443]},{"header":{"parameterUnit":"m.s-1","parameterCategory":1,"la1":30.2991,"la2":30.254,"lo1":-89.0895,"lo2":-89.0444,"dy":0.0017,"dx":0.0017,"nx":28,"ny":28,"refTime":"2025-04-14T09:00:00:Z","depth":0,"parameterNumber":3,"parameterNumberName":"V-component_of_WINDS"},"data":[0,0,0,0,0,0,0,0,0,0,0,0,0,0,0,0,0,0,0,0,0,0,0,0,0,0,0,0,0,0,0,0,0,0,0,0,0,0,0,0,0,0,0,0,0,0,0,0,0,0,0,0,0,0,0,0,0,0,-5.0371,-5.0372,0,-5.0441,-5.0442,-5.0443,-5.0338,-5.0334,-5.033,-5.0327,-5.0395,-5.04,-5.0405,0,0,0,0,0,0,0,0,0,0,0,0,0,-5.0142,-5.0147,-5.0371,-5.0372,-5.0373,-5.0441,-5.0442,-5.0443,-5.0338,-5.0334,-5.0329,-5.0325,-5.0393,-5.0399,-5.0405,0,0,0,0,0,0,0,0,0,0,0,0,0,-5.023,-5.0149,-5.0371,-5.0329,-5.0326,-5.0441,-5.0442,-5.0443,-5.0339,-5.0334,-5.0328,-5.0323,-5.0391,-5.0398,-5.0406,-5.0564,0,0,-5.043,-5.0433,0,0,0,0,0,0,0,0,-5.0225,-5.0238,-5.0334,-5.0332,-5.0329,-5.0375,-5.0386,-5.0484,-5.0341,-5.0334,-5.0327,-5.032,-5.0392,-5.04,-5.0425,-5.0567,-5.057,-5.0431,-5.0436,-5.0439,-5.0441,0,0,0,0,0,0,0,-5.0219,-5.0235,-5.0398,-5.0336,-5.0332,-5.0305,-5.0311,-5.0404,-5.0393,-5.0334,-5.0327,-5.0337,-5.039,-5.0417,-5.0425,-5.0571,-5.0431,-5.0437,-5.0442,-5.0445,-5.0847,-5.0853,0,0,0,0,0,0,-5.0219,-5.023,-5.0396,-5.04,-5.0262,-5.0314,-5.0321,-5.0366,-5.0392,-5.039,-5.0341,-5.0332,-5.0407,-5.0416,-5.0427,-5.0615,-5.0439,-5.0446,-5.0451,-5.0841,-5.0848,-5.0855,0,0,0,0,0,0,-5.0214,-5.0234,-5.0393,-5.0314,-5.0332,-5.0324,-5.0375,-5.037,-5.0398,-5.0397,-5.0394,-5.0372,-5.0403,-5.0416,-5.0531,-5.0616,-5.045,-5.0457,-5.0834,-5.0843,-5.0851,-5.099,0,0,0,0,0,0,-5.0208,-5.0233,-5.0294,-5.0316,-5.0336,-5.0498,-5.038,-5.0375,-5.0412,-5.04,-5.0425,-5.0424,-5.04,-5.052,-5.0539,-5.0623,-5.0463,-5.0826,-5.0838,-5.0849,-5.0978,-5.1003,-5.1024,0,0,0,0,0,-5.02,-5.033,-5.0298,-5.0319,-5.0413,-5.0503,-5.0514,-5.0485,-5.0419,-5.048,-5.0479,-5.0423,-5.0603,-5.0533,-5.0553,-5.0641,-5.0821,-5.0835,-5.0848,-5.0968,-5.0998,-5.1024,0,0,0,0,0,0,-5.0317,-5.0332,-5.0297,-5.0437,-5.047,-5.0485,-5.0561,-5.0518,-5.0568,-5.0555,-5.0515,-5.0521,-5.0645,-5.0654,-5.0575,-5.0795,-5.0701,-5.0719,-5.0785,-5.0814,-5.0836,-5.0832,-5.0469,0,0,0,0,0,-5.0359,-5.0433,-5.0441,-5.0564,-5.0582,-5.0569,-5.0607,-5.0582,-5.0613,-5.0626,-5.0634,-5.0665,-5.0729,-5.0771,-5.083,-5.0978,-5.0982,-5.1049,-5.1072,-5.1091,-5.1107,-5.1187,-5.1216,-5.0899,-5.0899,-5.0898,0,0,-5.0447,-5.0464,-5.0513,-5.0588,-5.061,-5.0686,-5.0581,-5.0666,-5.0721,-5.0638,-5.0748,-5.0755,-5.0787,-5.092,-5.0979,-5.0931,-5.1196,-5.1108,-5.1123,-5.1129,-5.1204,-5.1234,-5.126,-5.0908,-5.0906,-5.0905,0,0,-5.0646,-5.0667,-5.0772,-5.0797,-5.0832,-5.0822,-5.0848,-5.087,-5.0872,-5.0981,-5.0921,-5.0985,-5.1095,-5.1121,-5.1149,-5.1358,-5.1309,-5.1378,-5.1498,-5.1576,-5.1601,-5.1623,-5.1699,-5.1726,-5.1394,-5.1394,-5.1395,0,-5.0751,-5.0864,-5.0831,-5.0921,-5.0955,-5.0885,-5.0991,-5.1015,-5.1068,-5.1093,-5.1039,-5.1177,-5.1193,-5.1331,-5.1383,-5.1407,-5.1434,-5.1375,-5.1601,-5.1622,-5.1642,-5.1714,-5.1742,-5.1403,-5.1402,-5.1401,-5.14,0,-5.0991,-5.107,-5.1151,-5.1205,-5.1249,-5.1346,-5.1326,-5.1374,-5.1345,-5.134,-5.1453,-5.147,-5.1531,-5.1562,-5.1533,-5.1696,-5.1666,-5.1607,-5.1512,-5.1682,-5.1748,-5.1775,-5.1415,-5.1412,-5.1409,-5.1407,0,0,-5.1266,-5.1301,-5.1332,-5.1356,-5.139,-5.145,-5.1543,-5.1604,-5.1646,-5.1684,-5.1761,-5.1857,-5.1803,-5.1834,-5.1808,-5.1876,-5.2042,-5.1809,-5.1809,-5.1852,-5.2223,-5.2268,-5.23,-5.2008,-5.2014,-5.2018,-5.222,0,-5.1465,-5.1629,-5.1602,-5.176,-5.1833,-5.1767,-5.1848,-5.1877,-5.1876,-5.1936,-5.1933,-5.2002,-5.1925,-5.1944,-5.2009,-5.2008,-5.2116,-5.1993,-5.2079,-5.2083,-5.2075,-5.2334,-5.2382,-5.2572,-5.2246,-5.225,-5.2253,0,-5.172,-5.177,-5.1936,-5.1959,-5.1988,-5.2063,-5.2117,-5.2175,-5.2206,-5.22,-5.2236,-5.2197,-5.2289,-5.2192,-5.2317,-5.2235,-5.2268,-5.2273,-5.228,-5.2287,-5.2179,-5.235,-5.2632,-5.2661,-5.2294,-5.229,-5.2288,0,-5.1906,-5.2013,-5.2127,-5.2149,-5.2179,-5.2233,-5.2247,-5.2273,-5.2311,-5.2358,-5.2382,-5.2439,-5.247,-5.2513,-5.249,-5.2421,-5.262,-5.2521,-5.2618,-5.2619,-5.2663,-5.2661,-5.2956,-5.2684,-5.2683,-5.2683,-5.2682,0,-5.2132,-5.2236,-5.2211,-5.2281,-5.2396,-5.2363,-5.2476,-5.2482,-5.2506,-5.2575,-5.252,-5.2586,-5.2551,-5.2613,-5.2595,-5.2703,-5.2717,-5.2714,-5.2708,-5.272,-5.272,-5.2742,-5.2728,-5.269,-5.2689,-5.2687,-5.2686,0,-5.2359,-5.2346,-5.2466,-5.2484,-5.2491,-5.2575,-5.259,-5.2655,-5.2649,-5.2737,-5.2756,-5.2746,-5.2817,-5.2798,-5.2874,-5.2862,-5.2998,-5.2975,-5.2989,-5.2983,-5.3082,-5.3073,-5.3402,-5.3443,-5.3143,-5.3146,-5.3149,0,-5.2504,-5.2584,-5.2611,-5.2655,-5.2674,-5.2744,-5.2783,-5.2753,-5.2797,-5.2838,-5.2898,-5.2965,-5.3016,-5.3132,-5.3131,-5.319,-5.3168,-5.3279,-5.3176,-5.3186,-5.3171,-5.3167,-5.3175,-5.33,-5.3303,-5.3306,-5.3308,0,-5.2765,-5.2755,-5.2815,-5.2874,-5.2923,-5.2967,-5.3006,-5.3044,-5.3017,-5.3068,-5.3141,-5.3181,-5.326,-5.3327,-5.338,-5.3393,-5.3347,-5.3341,-5.3366,-5.338,-5.3385,-5.3384,-5.3046,-5.3334,-5.3331,-5.3329,-5.3328,-5.3327,-5.2956,-5.3024,-5.3054,-5.3123,-5.315,-5.3187,-5.325,-5.3252,-5.3313,-5.3376,-5.3354,-5.3438,-5.3466,-5.3533,-5.3553,-5.3617,-5.3574,-5.3611,-5.3621,-5.3631,-5.3644,-5.3374,-5.3626,-5.3625,-5.3625,-5.3624,-5.3623,0,-5.3215,-5.3231,-5.3295,-5.3352,-5.3407,-5.3359,-5.3399,-5.3448,-5.3523,-5.3554,-5.3606,-5.369,-5.3754,-5.3758,-5.3818,-5.3869,-5.3849,-5.3886,-5.3882,-5.3886,-5.3678,-5.365,-5.3901,-5.3901,-5.3901,-5.3901,-5.3901,-5.3901,-5.3356,-5.3468,-5.3462,-5.3586,-5.3601,-5.3684,-5.3711,-5.3745,-5.377,-5.3867,-5.3921,-5.3924,-5.3944,-5.4005,-5.4062,-5.4061,-5.4086,-5.4131,-5.4123,-5.3928,-5.3901,-5.3874,-5.3848,-5.4136,-5.4137,-5.4326,-5.4327,-5.4329]}]]